Date String (YYYY-MM-DD hh:mm:ss) UTC,Instrument flags,absolute air pressure of the measurement (hPa),sample flow rate (lpm),inlet stack bypass flow (lpm),air temperature of the measurement (°C),ambient temperature measured by the external sensor (°C),aerosol sample conditioner tube jacket temperature (°C),OPC LED temperature (°C),internal box temperature (°C),relative humidity of the measurement (%),span deviation,mass concentration of particles derived from Lorenz-Mie calculation of OPC scattering (μg/m³),mass concentration of particles derived from Lorenz-Mie calculation of OPC scattering (μg/m³),mass concentration of particles derived from Lorenz-Mie calculation of OPC scattering (μg/m³)
DateTimeUTC,F1_M11,P_M11,Q1_M11,Q2_M11,T1_M11,T2_M11,T3_M11,T4_M11,T5_M11,U1_M11,ZSPAN_M11,X0_M11,X2_M11,X1_M11
2023-10-22 07:00:00,SystemResetWarning,0827.7,5.01,000.00,028.9,027.6,000.0,037.2,030.5,15.4,0000.0,0019.87,0004.76,0002.01
2023-10-22 07:01:00,SystemResetWarning,0827.5,5.00,000.00,028.9,027.7,000.0,037.2,030.6,15.4,0000.0,0019.38,0004.76,0002.04
2023-10-22 07:02:00,SystemResetWarning,0827.7,5.00,000.00,028.9,027.7,000.0,037.2,030.6,15.4,0000.0,0019.62,0004.71,0002.05
2023-10-22 07:03:00,SystemResetWarning,0827.7,5.00,000.00,028.9,027.7,000.0,037.2,030.7,15.4,0000.0,0020.07,0004.69,0002.05
2023-10-22 07:04:00,SystemResetWarning,0827.7,5.00,000.00,028.9,027.7,000.0,037.2,030.7,15.4,0000.0,0019.96,0004.71,0002.07
2023-10-22 07:05:00,SystemResetWarning,0827.7,5.00,000.00,029.0,027.7,000.0,037.3,030.7,15.3,0000.0,0019.95,0004.71,0002.08
2023-10-22 07:06:00,SystemResetWarning,0827.7,4.99,000.00,029.0,027.8,000.0,037.3,030.7,15.4,0000.0,0019.45,0004.69,0002.08
2023-10-22 07:07:00,SystemResetWarning,0827.7,5.00,000.00,029.0,027.8,000.0,037.3,030.7,15.4,0000.0,0018.81,0004.63,0002.07
2023-10-22 07:08:00,SystemResetWarning,0827.8,5.00,000.00,029.0,027.8,000.0,037.3,030.7,15.4,0000.0,0018.12,0004.59,0002.08
2023-10-22 07:09:00,SystemResetWarning,0827.8,5.00,000.00,029.0,027.8,000.0,037.3,030.7,15.3,0000.0,0017.21,0004.56,0002.05
2023-10-22 07:10:00,SystemResetWarning,0827.7,5.00,000.00,029.0,027.8,000.0,037.4,030.7,15.3,0000.0,0016.45,0004.49,0002.03
2023-10-22 07:11:00,SystemResetWarning,0827.8,5.00,000.00,029.1,027.8,000.0,037.4,030.8,15.3,0000.0,0016.16,0004.41,0002.00
2023-10-22 07:12:00,SystemResetWarning,0827.8,5.00,000.00,029.1,027.9,000.0,037.4,030.8,15.3,0000.0,0016.32,0004.36,0001.99
2023-10-22 07:13:00,SystemResetWarning,0827.7,4.99,000.00,029.1,026.8,000.0,037.4,030.7,15.2,0000.0,0016.80,0004.37,0001.98
2023-10-22 07:14:00,SystemResetWarning,0827.7,5.01,000.00,029.0,024.9,000.0,037.3,030.5,15.3,0000.0,0017.02,0004.35,0002.00
2023-10-22 07:15:00,SystemResetWarning,0827.7,5.01,000.00,028.9,024.4,000.0,037.2,030.3,15.4,0000.0,0017.90,0004.40,0002.02
2023-10-22 07:16:00,SystemResetWarning,0827.7,5.01,000.00,028.8,024.6,000.0,037.2,030.1,15.5,0000.0,0018.79,0004.43,0002.04
2023-10-22 07:17:00,SystemResetWarning,0827.7,5.00,000.00,028.7,025.0,000.0,037.2,030.0,15.6,0000.0,0018.71,0004.40,0002.05
2023-10-22 07:18:00,SystemResetWarning,0827.7,5.00,000.00,028.6,025.4,000.0,037.2,030.0,15.7,0000.0,0018.80,0004.44,0002.07
2023-10-22 07:19:00,SystemResetWarning,0827.7,5.01,000.00,028.6,025.7,000.0,037.2,030.0,15.7,0000.0,0018.76,0004.47,0002.09
2023-10-22 07:20:00,SystemResetWarning,0827.7,5.00,000.00,028.5,026.0,000.0,037.2,030.1,15.7,0000.0,0018.82,0004.46,0002.12
2023-10-22 07:21:00,SystemResetWarning,0827.7,5.00,000.00,028.5,026.3,000.0,037.2,030.1,15.8,0000.0,0018.94,0004.45,0002.13
2023-10-22 07:22:00,SystemResetWarning,0827.7,5.00,000.00,028.5,026.5,000.0,037.1,030.2,15.8,0000.0,0019.12,0004.47,0002.16
2023-10-22 07:23:00,SystemResetWarning,0827.7,5.00,000.00,028.5,026.7,000.0,037.1,030.1,15.7,0000.0,0019.29,0004.51,0002.17
2023-10-22 07:24:00,SystemResetWarning,0827.7,5.00,000.00,028.6,026.8,000.0,037.1,030.1,15.7,0000.0,0019.14,0004.52,0002.18
2023-10-22 07:25:00,SystemResetWarning,0827.6,5.00,000.00,028.6,027.0,000.0,037.1,030.2,15.7,0000.0,0017.67,0004.52,0002.19
2023-10-22 07:26:00,SystemResetWarning,0827.6,5.00,000.00,028.6,027.0,000.0,037.1,030.2,15.6,0000.0,0016.98,0004.45,0002.17
2023-10-22 07:27:00,SystemResetWarning,0827.5,5.01,000.00,028.6,027.1,000.0,037.1,030.2,15.7,0000.0,0015.88,0004.32,0002.14
2023-10-22 07:28:00,SystemResetWarning,0827.6,5.00,000.00,028.6,027.2,000.0,037.1,030.3,15.7,0000.0,0015.63,0004.32,0002.11
2023-10-22 07:29:00,SystemResetWarning,0827.8,4.99,000.00,028.7,027.3,000.0,037.1,030.3,15.6,0000.0,0016.22,0004.34,0002.11
2023-10-22 07:30:00,SystemResetWarning,0827.8,5.00,000.00,028.7,027.4,000.0,037.1,030.3,15.7,0000.0,0016.47,0004.31,0002.11
2023-10-22 07:31:00,SystemResetWarning,0827.5,5.00,000.00,028.7,027.4,000.0,037.1,030.4,15.6,0000.0,0017.53,0004.39,0002.10
2023-10-22 07:32:00,SystemResetWarning,0827.5,5.00,000.00,028.7,027.4,000.0,037.1,030.4,15.6,0000.0,0018.28,0004.44,0002.09
2023-10-22 07:33:00,SystemResetWarning,0827.5,4.99,000.00,028.8,027.5,000.0,037.1,030.4,15.6,0000.0,0018.77,0004.47,0002.08
2023-10-22 07:34:00,SystemResetWarning,0827.5,5.00,000.00,028.8,027.5,000.0,037.2,030.4,15.6,0000.0,0019.48,0004.50,0002.07
2023-10-22 07:35:00,SystemResetWarning,0827.5,5.00,000.00,028.8,027.5,000.0,037.2,030.5,15.6,0000.0,0020.97,0004.51,0002.05
2023-10-22 07:36:00,SystemResetWarning,0827.5,4.99,000.00,028.8,027.6,000.0,037.2,030.5,15.7,0000.0,0021.41,0004.53,0002.03
2023-10-22 07:37:00,SystemResetWarning,0827.6,5.00,000.00,028.8,027.6,000.0,037.2,030.5,15.6,0000.0,0021.75,0004.59,0002.03
2023-10-22 07:38:00,SystemResetWarning,0827.6,5.00,000.00,028.9,027.6,000.0,037.2,030.5,15.6,0000.0,0022.45,0004.69,0002.05
2023-10-22 07:39:00,SystemResetWarning,0827.8,5.00,000.00,028.9,027.6,000.0,037.2,030.5,15.6,0000.0,0023.89,0004.75,0002.07
2023-10-22 07:40:00,SystemResetWarning,0827.8,5.00,000.00,028.9,027.7,000.0,037.2,030.5,15.6,0000.0,0024.00,0004.75,0002.08
2023-10-22 07:41:00,SystemResetWarning,0827.8,5.00,000.00,028.9,027.7,000.0,037.3,030.6,15.6,0000.0,0024.12,0004.76,0002.07
2023-10-22 07:42:00,SystemResetWarning,0827.7,5.00,000.00,028.9,027.7,000.0,037.3,030.6,15.6,0000.0,0024.22,0004.66,0002.06
2023-10-22 07:43:00,SystemResetWarning,0827.6,5.00,000.00,029.0,027.7,000.0,037.3,030.6,15.6,0000.0,0024.15,0004.64,0002.04
2023-10-22 07:44:00,SystemResetWarning,0827.6,5.01,000.00,029.0,027.7,000.0,037.3,030.6,15.6,0000.0,0024.16,0004.63,0002.03
2023-10-22 07:45:00,SystemResetWarning,0827.6,5.00,000.00,029.0,027.8,000.0,037.3,030.6,15.6,0000.0,0023.16,0004.66,0002.02
2023-10-22 07:46:00,SystemResetWarning,0827.6,5.00,000.00,029.0,027.8,000.0,037.3,030.6,15.6,0000.0,0021.77,0004.68,0002.03
2023-10-22 07:47:00,SystemResetWarning,0827.5,5.00,000.00,029.0,027.8,000.0,037.4,030.7,15.6,0000.0,0022.06,0004.70,0002.03
2023-10-22 07:48:00,SystemResetWarning,0827.8,5.00,000.00,029.0,027.8,000.0,037.4,030.7,15.7,0000.0,0022.54,0004.66,0002.04
2023-10-22 07:49:00,SystemResetWarning,0827.8,5.00,000.00,029.0,027.8,000.0,037.4,030.7,15.7,0000.0,0022.52,0004.55,0002.03
2023-10-22 07:50:00,SystemResetWarning,0827.5,5.01,000.00,029.1,027.8,000.0,037.4,030.7,15.7,0000.0,0021.67,0004.51,0002.01
2023-10-22 07:51:00,SystemResetWarning,0827.5,5.00,000.00,029.1,027.8,000.0,037.4,030.7,15.6,0000.0,0021.08,0004.49,0001.98
2023-10-22 07:52:00,SystemResetWarning,0827.5,5.00,000.00,029.1,027.8,000.0,037.4,030.7,15.5,0000.0,0020.15,0004.49,0001.99
2023-10-22 07:53:00,SystemResetWarning,0827.5,5.00,000.00,029.1,027.8,000.0,037.4,030.8,15.5,0000.0,0019.24,0004.51,0001.99
2023-10-22 07:54:00,SystemResetWarning,0827.7,4.99,000.00,029.1,027.9,000.0,037.4,030.8,15.5,0000.0,0018.38,0004.50,0002.00
2023-10-22 07:55:00,SystemResetWarning,0827.8,5.00,000.00,029.1,027.9,000.0,037.4,030.8,15.4,0000.0,0017.66,0004.56,0001.99
2023-10-22 07:56:00,SystemResetWarning,0827.8,5.01,000.00,029.1,027.8,000.0,037.5,030.7,15.4,0000.0,0017.99,0004.53,0001.98
2023-10-22 07:57:00,SystemResetWarning,0827.6,5.00,000.00,029.2,027.8,000.0,037.5,030.8,15.5,0000.0,0017.43,0004.47,0001.94
2023-10-22 07:58:00,SystemResetWarning,0827.8,5.00,000.00,029.2,027.8,000.0,037.5,030.8,15.5,0000.0,0016.78,0004.40,0001.91
2023-10-22 07:59:00,SystemResetWarning,0827.9,5.00,000.00,029.2,027.9,000.0,037.5,030.8,15.5,0000.0,0017.62,0004.39,0001.89
